Weather History for Columbia, MO

Change the Weather History Date:

Sunday, March 3, 2013

  Actual Average Record
Temperature  
Mean Temperature 26 °F 40 °F  
Max Temperature 38 °F 50 °F 80 °F (1983)
Min Temperature 13 °F 30 °F -2 °F (2014)
Degree Days  
Heating Degree Days 39 25  
Month to date heating degree days 117 77  
Since 1 July heating degree days 3700 4023  
Cooling Degree Days 0 0  
Month to date cooling degree days 0 0  
Year to date cooling degree days 1 0  
Moisture  
Dew Point 17 °F    
Average Humidity 68    
Maximum Humidity 92    
Minimum Humidity 44    
Precipitation  
Precipitation T in 0.08 in 1.24 in (1976)
Month to date precipitation 0.01 0.25  
Year to date precipitation 6.25 4.42  
Snow  
Snow 0.00 in 0.10 in 1.60 in (1988)
Month to date snowfall 0.1 0.3  
Since 1 July snowfall 24.8 16.4  
Snow Depth 0.00 in    
Sea Level Pressure  
Sea Level Pressure 30.09 in    
Wind  
Wind Speed 8 mph (SE)    
Max Wind Speed 16 mph    
Max Gust Speed 21 mph    
Visibility 9 miles    
Events      
T = Trace of Precipitation, MM = Missing Value Source: NWS Daily Summary

Daily Weather History Graph

Daily Weather History Graph

Search for Another Location

Airport:

Trip Planner

Search our weather history database for the weather conditions in past years. The results will help you decide how hot, cold, wet, or windy it might be!

Date:

Astronomy

Mar. 03, 2013 Rise Set
Actual Time 6:37 AM CST 6:04 PM CST
Civil Twilight 6:11 AM CST 6:30 PM CST
Nautical Twilight 5:40 AM CST 7:01 PM CST
Astronomical Twilight 5:09 AM CST 7:32 PM CST
Moon No Moon Rise 9:57 AM CST (3/3)
Length of Visible Light 12h 19m
Length of Day
11h 26m
Waning Gibbous, 63% of the Moon is Illuminated
Mar 3
Waning Gibbous
Mar 4
Last Quarter
Mar 11
New
Mar 19
First Quarter
Mar 27
Full

Hourly Weather History & Observations

Time (CST) Temp. Windchill Dew Point Humidity Pressure Visibility Wind Dir Wind Speed Gust Speed Precip Events Conditions
12:54 AM 19.0 °F - 14.0 °F 81% 30.24 in 9.0 mi Calm Calm - N/A   Overcast
1:54 AM 17.1 °F 11.7 °F 14.0 °F 88% 30.23 in 8.0 mi SW 3.5 mph - N/A   Overcast
2:54 AM 18.0 °F 12.7 °F 15.1 °F 88% 30.20 in 7.0 mi South 3.5 mph - N/A   Overcast
3:54 AM 17.1 °F - 15.1 °F 92% 30.19 in 6.0 mi Calm Calm - N/A   Scattered Clouds
4:54 AM 17.1 °F 10.0 °F 14.0 °F 88% 30.19 in 6.0 mi SSE 4.6 mph - N/A   Partly Cloudy
5:54 AM 15.1 °F 7.7 °F 12.9 °F 91% 30.19 in 6.0 mi SE 4.6 mph - N/A   Clear
6:54 AM 14.0 °F 5.1 °F 10.9 °F 88% 30.19 in 4.0 mi SSE 5.8 mph - N/A   Clear
7:54 AM 18.0 °F 8.7 °F 14.0 °F 84% 30.19 in 5.0 mi SE 6.9 mph - N/A   Overcast
8:54 AM 21.0 °F 13.4 °F 16.0 °F 81% 30.19 in 8.0 mi SSE 5.8 mph - N/A   Overcast
9:54 AM 27.0 °F 19.5 °F 18.0 °F 69% 30.17 in 10.0 mi South 6.9 mph - N/A   Overcast
10:54 AM 30.9 °F 25.2 °F 19.0 °F 61% 30.14 in 10.0 mi SE 5.8 mph - N/A   Overcast
11:54 AM 33.1 °F 25.5 °F 17.1 °F 52% 30.12 in 10.0 mi SE 9.2 mph - N/A   Overcast
12:54 PM 34.0 °F 25.5 °F 17.1 °F 50% 30.08 in 10.0 mi SE 11.5 mph - N/A   Overcast
1:54 PM 36.0 °F 28.5 °F 17.1 °F 46% 30.05 in 10.0 mi SE 10.4 mph - N/A   Overcast
2:54 PM 37.0 °F 29.8 °F 17.1 °F 44% 30.03 in 10.0 mi ESE 10.4 mph - N/A   Overcast
3:54 PM 37.9 °F 30.5 °F 17.1 °F 43% 30.00 in 10.0 mi ESE 11.5 mph - N/A   Overcast
4:54 PM 37.0 °F 28.5 °F 19.0 °F 48% 29.98 in 10.0 mi ESE 13.8 mph - 0.00 in   Overcast
5:54 PM 37.0 °F 30.4 °F 19.0 °F 48% 29.99 in 10.0 mi ESE 9.2 mph - 0.00 in   Overcast
6:54 PM 36.0 °F 27.5 °F 21.0 °F 55% 29.99 in 10.0 mi ESE 12.7 mph - N/A   Overcast
7:54 PM 36.0 °F 26.7 °F 19.9 °F 52% 29.97 in 10.0 mi ESE 15.0 mph - N/A   Partly Cloudy
8:54 PM 35.6 °F 27.5 °F 21.2 °F 56% 29.94 in 10.0 mi ESE 11.5 mph - N/A   Overcast
9:54 PM 36.0 °F 27.5 °F 21.9 °F 57% 29.96 in 10.0 mi ESE 12.7 mph - N/A   Mostly Cloudy
10:54 PM 37.0 °F 28.9 °F 21.9 °F 54% 29.96 in 10.0 mi ESE 12.7 mph - N/A   Scattered Clouds
11:54 PM 36.0 °F 27.1 °F 23.0 °F 59% 29.93 in 10.0 mi ESE 13.8 mph - N/A   Overcast